User: anonymous   Login
Location: Fort Wayne
(41.1310°N, 85.1290°W)
Time: 03:21:56
(UTC-04:00)
Language:

IDEFIX/ARIANE 42P - Orbit

View from above orbital plane
View from above orbital plane
View from above satellite
View from above satellite

Ground track
Ground track

The orbit data is extracted from the following two-line orbital elements,

1 27422U 02021B   16126.08814552  .00000030  00000-0  27589-4 0  9999
2 27422  98.2322 142.9872 0012521  12.9989 347.1514 14.29240000728382
Epoch (UTC): 05 May 2016 02:06:55
Eccentricity: 0.0012521
inclination: 98.2322°
perigee height: 785 km
apogee height: 803 km
right ascension of ascending node: 142.9872°
argument of perigee: 12.9989°
revolutions per day: 14.29240000
mean anomaly at epoch: 347.1514°
orbit number at epoch: 72838

The dashed part of the orbit path shows where the satellite is in the earth's shadow,  

DLR